GFSMW_850_spd_258.txt.gz
Wind_Speed
20 23 25 26 31 31 29 29 18 11 3 7 13 19 14 18 22 26 27 27 27 31 32 34 33 35 34 34 34 34 35 35 31 31 32 31 28 28 33 34 32 33 35
18 21 24 26 29 32 31 33 31 29 20 12 13 13 15 19 20 23 25 31 29 29 30 37 40 36 40 38 36 34 35 37 35 30 30 33 34 38 39 39 37 33 33
16 18 22 22 23 25 27 28 29 31 31 26 20 16 18 16 17 23 26 22 31 33 31 36 40 40 37 40 42 43 41 39 37 36 34 16 24 28 32 30 28 28 29
14 15 18 20 21 22 22 20 23 25 27 28 28 29 25 20 20 23 23 21 21 22 33 31 39 43 41 41 42 41 46 46 46 37 38 44 34 14 13 20 21 23 24
14 14 16 17 18 19 20 23 22 23 26 26 25 23 24 27 28 27 27 30 24 21 18 26 36 43 45 46 44 42 42 45 47 47 42 40 44 46 44 33 42 30 23
12 14 15 16 17 18 20 21 20 22 24 23 25 26 24 24 26 31 30 25 31 27 24 27 28 31 38 45 45 46 46 46 47 47 48 47 42 42 41 42 47 48 47
11 12 13 15 16 18 20 19 21 22 25 25 23 23 25 25 24 25 29 33 32 27 29 30 30 26 28 34 45 44 47 49 49 50 50 48 50 47 43 42 40 40 38
9 11 12 14 14 16 19 21 23 23 24 25 25 25 23 24 27 26 23 23 29 32 34 35 30 30 30 28 36 44 46 49 51 53 53 53 50 50 50 47 42 41 42
7 8 10 12 13 15 18 20 20 21 25 27 26 26 28 28 26 25 27 26 22 27 32 31 34 32 31 38 28 38 40 46 48 51 55 58 55 53 50 51 52 46 43
4 6 8 9 11 14 16 18 20 20 21 25 26 29 28 28 28 29 28 29 30 24 28 28 29 31 34 28 25 34 38 44 41 49 53 55 57 57 55 56 53 53 53
4 5 7 9 11 13 16 18 18 19 21 23 23 25 28 31 32 31 31 32 31 33 29 29 29 29 31 34 34 33 29 26 29 33 39 51 56 54 57 56 55 54 52
1 4 6 8 11 14 16 17 17 18 19 20 22 25 26 30 32 33 35 35 33 33 32 34 33 31 30 32 33 32 32 31 36 37 32 36 39 49 59 58 58 56 53
1 3 5 8 11 13 15 16 16 18 20 22 22 23 27 30 33 36 35 37 39 38 34 34 35 37 37 33 37 42 38 33 34 36 37 43 33 42 42 60 55 54 55
1 2 5 8 11 13 14 15 16 18 20 21 23 24 28 30 31 33 37 38 39 40 41 41 37 37 36 34 35 37 42 38 38 33 32 31 30 32 38 42 43 50 62
2 3 6 9 11 12 13 15 16 18 20 21 23 24 28 29 32 35 37 37 38 41 41 40 39 42 37 35 33 39 44 41 44 46 40 33 33 27 40 35 36 57 54
1 3 6 8 10 11 13 14 17 19 20 21 22 24 27 29 32 34 37 39 39 38 39 36 39 40 37 37 38 38 42 46 40 47 46 41 37 35 32 37 33 25 50
1 3 5 7 9 11 13 15 17 18 19 20 21 24 27 29 32 35 38 40 44 42 40 42 38 35 39 37 39 40 40 41 41 43 42 43 39 29 29 31 30 33 32
0 2 4 6 9 10 12 15 16 16 18 19 22 24 28 30 32 35 35 37 41 47 46 42 39 40 38 38 38 35 38 36 39 38 38 41 42 34 32 35 32 31 26
2 1 2 6 8 9 12 14 15 16 17 20 23 26 28 31 34 35 36 41 41 41 41 41 40 39 40 38 35 35 39 40 35 34 30 26 24 30 36 37 40 36 32
3 1 3 5 6 10 11 13 14 16 18 21 24 26 28 31 33 35 43 38 38 36 36 37 38 39 40 37 35 35 40 41 39 38 40 35 33 27 32 34 38 39 36
3 0 2 4 7 9 11 12 13 15 18 20 22 24 27 30 31 39 37 36 36 36 37 41 41 40 37 38 36 34 34 35 37 38 41 38 35 31 31 31 34 36 33
1 0 2 4 6 8 9 11 12 15 17 20 22 24 27 27 36 35 36 36 37 39 39 39 42 41 40 40 42 41 36 33 35 36 36 38 36 33 31 33 37 35 33
3 1 1 4 5 7 8 10 12 14 17 18 20 23 26 31 33 35 37 38 37 38 38 40 41 46 47 47 47 47 43 40 37 35 35 34 37 37 39 39 42 41 37
3 1 1 3 5 6 7 8 11 13 15 17 19 21 28 31 30 34 36 36 38 39 39 39 43 45 45 45 47 47 45 40 36 31 33 35 35 34 35 34 31 30 28
5 2 0 2 4 6 7 9 10 14 16 16 18 21 28 30 29 31 33 34 34 34 34 36 40 42 43 43 41 40 39 36 32 29 30 34 33 32 30 30 31 24 16
6 4 2 0 3 5 6 8 12 15 16 16 18 23 26 28 28 29 32 30 31 31 31 33 34 35 34 38 38 36 34 35 31 28 29 31 31 31 31 28 26 18 17

GFSMW_850_spd_264.txt.gz
Wind_Speed
18 17 18 19 22 23 24 24 22 23 14 7 5 1 7 9 11 14 15 14 15 23 21 24 23 29 34 35 36 34 34 35 37 40 42 45 48 46 47 46 44 43 42
16 15 15 17 19 20 21 21 21 20 21 21 19 17 13 11 11 13 11 11 15 20 17 15 21 27 28 31 33 37 42 40 38 39 42 44 45 45 46 45 46 47 48
16 13 13 16 17 19 21 22 22 20 18 15 11 10 9 11 11 16 17 19 18 16 18 19 20 19 22 26 26 28 33 40 39 43 41 27 35 38 40 38 35 34 35
18 14 13 15 17 17 17 18 18 18 18 18 16 16 15 16 17 18 18 18 19 21 20 20 20 20 21 23 25 25 25 26 35 38 43 47 47 44 46 47 44 40 37
17 14 13 14 16 17 18 17 17 17 18 17 17 18 18 18 17 15 16 17 17 19 22 23 24 24 23 23 22 25 27 24 27 31 37 38 47 49 51 47 50 48 48
18 12 10 9 12 14 17 18 20 20 20 18 17 16 17 18 18 19 21 22 22 22 23 24 26 27 28 27 26 27 25 27 35 34 36 30 34 35 41 45 50 52 58
21 15 7 5 9 12 15 17 19 20 20 19 20 21 20 21 22 22 22 23 25 27 27 27 26 28 29 30 30 25 28 28 28 33 36 40 36 31 27 40 50 48 52
22 16 11 9 8 9 11 15 17 18 18 19 20 20 21 23 23 23 25 26 26 26 28 29 30 29 28 29 29 30 29 29 29 28 30 36 40 43 39 39 32 34 49
23 19 16 10 6 6 7 11 14 15 15 16 18 20 22 23 24 23 23 24 25 26 27 29 31 31 32 31 31 31 31 28 29 33 31 31 37 37 36 38 42 47 34
27 23 19 15 10 5 5 10 13 13 13 13 16 17 20 23 24 23 24 26 27 28 29 31 33 34 35 36 35 36 36 32 31 34 38 38 35 36 34 35 36 36 35
30 25 20 16 10 4 4 11 12 11 13 11 14 15 18 22 23 24 26 28 30 31 32 33 34 35 36 38 40 39 38 29 36 42 39 40 40 39 37 31 31 27 32
31 27 24 18 10 3 4 9 10 11 13 11 14 14 17 22 22 23 25 27 30 32 35 37 38 37 36 35 35 33 29 33 41 34 44 44 41 38 36 33 34 33 32
33 29 23 16 9 4 1 7 9 11 12 10 14 14 19 21 22 23 26 28 31 35 36 37 37 38 36 34 28 32 35 35 36 37 42 41 38 35 33 29 37 31 28
33 28 22 16 11 5 2 6 7 10 10 11 14 15 20 20 20 23 26 29 33 35 35 35 34 34 35 32 33 37 38 38 39 38 36 37 31 36 33 29 32 29 31
33 29 24 18 11 5 2 5 6 10 9 11 12 17 17 18 21 24 27 31 32 32 32 32 32 33 31 29 33 36 38 39 40 38 35 33 33 34 25 27 29 30 29
34 29 23 17 11 6 3 5 7 9 8 10 13 16 16 19 22 25 29 30 31 31 31 30 31 32 32 32 34 36 37 37 37 39 36 36 36 32 30 30 29 31 26
35 31 23 17 11 6 5 5 7 5 7 9 14 13 16 19 22 26 28 30 31 32 31 31 32 34 31 33 35 36 37 39 39 37 37 36 33 34 34 37 29 28 33
36 29 23 17 10 7 6 5 4 4 6 10 12 13 16 19 22 25 27 28 30 31 33 33 31 34 33 35 36 38 38 39 37 38 37 34 33 33 32 32 33 34 33
34 27 20 13 9 8 6 5 5 5 7 10 10 12 15 19 22 24 26 27 29 31 33 33 33 34 35 37 38 40 40 41 42 41 36 31 31 30 28 32 36 37 38
31 26 18 12 11 9 6 4 5 6 7 7 9 10 14 19 21 22 24 26 27 30 30 32 34 34 37 39 40 41 40 42 43 41 38 34 30 29 28 30 34 39 39
29 22 15 13 12 9 6 5 6 6 5 6 6 9 13 17 19 21 23 24 26 27 30 31 34 35 38 41 41 41 40 39 41 39 38 35 31 27 25 24 27 30 32
27 20 18 16 14 9 7 6 6 4 4 5 5 8 12 16 18 20 22 24 26 27 29 31 34 35 36 38 41 42 39 37 37 36 34 34 31 28 26 24 24 25 26
25 21 18 19 14 10 7 6 5 2 3 4 4 7 11 14 16 18 21 23 25 27 29 30 34 36 36 37 38 38 39 39 37 34 34 33 31 30 28 27 25 25 27
29 27 24 20 15 11 8 6 4 3 3 3 4 7 10 12 14 16 19 21 23 25 27 28 30 33 35 36 38 38 38 38 39 38 38 38 37 36 35 34 32 29 29
33 29 24 19 16 12 8 6 4 3 3 2 5 7 11 13 12 15 17 19 19 19 21 23 26 29 32 32 31 32 33 35 35 38 40 44 45 44 42 40 38 36 34
34 29 23 18 16 13 9 7 6 4 3 2 3 8 11 12 11 14 14 15 18 20 20 19 21 23 22 26 30 29 29 30 33 36 41 43 44 44 44 43 42 39 38

GFSMW_850_spd_270.txt.gz
Wind_Speed
20 18 18 17 18 18 17 14 15 13 9 10 10 8 6 8 6 7 7 6 6 7 8 9 11 11 15 15 18 19 21 21 26 30 37 38 38 38 33 33 30 29 30
21 18 17 16 16 17 17 17 18 17 15 14 13 11 11 11 11 10 9 9 8 8 9 10 11 11 12 13 15 17 18 18 19 21 23 18 27 17 20 26 30 35 35
23 19 17 15 14 15 14 15 16 16 15 13 11 11 11 11 10 10 10 11 12 12 12 13 13 13 13 15 17 18 19 19 18 16 9 11 10 35 21 29 18 19 26
21 19 17 16 14 14 12 12 13 13 14 13 11 10 11 12 14 13 13 13 14 15 16 16 16 16 16 16 16 17 18 19 20 18 18 14 14 12 18 34 37 34 34
23 21 18 15 15 14 12 12 11 12 13 12 11 11 12 13 12 10 10 11 13 14 15 17 18 19 20 19 19 18 18 19 19 19 21 23 23 9 22 28 40 43 43
24 21 18 17 16 15 13 12 11 14 13 12 13 13 13 13 11 12 14 15 16 17 18 19 19 19 20 21 22 22 21 21 19 16 19 18 21 28 22 30 32 40 48
26 23 21 19 17 14 13 12 11 13 12 11 11 12 13 12 13 15 15 16 18 19 20 21 21 22 22 21 20 20 19 19 19 19 22 23 28 21 24 33 41 41 48
29 25 21 18 16 14 12 11 10 10 10 10 12 12 13 14 15 16 17 17 18 19 20 21 22 22 23 23 23 22 23 23 22 23 25 26 23 22 26 29 33 43 33
33 28 23 19 16 14 12 11 10 9 9 9 10 11 13 13 14 15 15 16 17 19 20 21 22 22 23 23 23 22 23 22 23 23 24 25 27 25 27 26 24 28 37
37 32 26 21 17 14 12 10 9 7 8 9 9 9 12 13 13 14 15 18 19 20 21 22 24 24 25 26 26 29 29 29 28 28 28 27 27 28 27 28 28 28 31
41 36 29 23 18 15 11 9 7 6 6 6 6 7 10 11 12 13 16 18 19 20 22 23 24 25 26 27 30 31 30 30 29 29 29 29 28 27 27 28 29 30 33
43 38 31 26 21 16 12 8 6 4 4 4 4 6 8 9 11 14 16 18 20 21 22 24 25 26 26 27 31 32 32 33 33 32 31 31 30 28 27 29 32 33 35
44 39 34 29 24 19 14 10 6 4 3 2 2 4 6 9 11 14 15 17 19 21 22 23 24 26 27 30 32 33 34 33 32 32 32 33 33 31 30 30 32 35 37
46 42 37 32 27 22 17 13 8 5 3 1 1 4 6 9 11 13 14 17 19 21 22 23 25 26 27 29 32 34 35 34 34 33 32 32 31 30 30 31 33 33 36
45 45 41 36 31 26 21 15 9 7 5 2 1 4 5 7 9 11 14 17 19 21 22 24 25 26 28 31 33 35 36 37 37 36 36 34 32 28 29 29 32 34 37
47 47 42 39 35 29 23 17 12 10 6 3 1 2 4 5 7 10 13 15 18 20 22 23 25 26 28 29 31 33 35 36 39 40 39 37 36 35 33 33 34 32 35
50 50 46 41 36 29 24 20 14 10 8 3 1 0 2 3 6 10 12 15 18 19 21 22 24 25 27 29 32 32 34 35 37 39 40 40 38 38 39 39 38 36 34
53 50 46 42 36 30 25 18 13 11 7 5 3 3 1 3 6 9 12 14 17 19 20 21 23 24 27 29 32 33 34 34 35 37 39 40 40 39 41 42 40 39 39
54 50 47 43 37 32 26 19 15 13 10 8 6 5 1 2 6 8 11 14 16 17 19 20 22 24 26 28 31 33 34 35 35 36 36 38 39 39 38 39 40 40 39
52 51 47 42 38 33 27 21 17 15 13 10 8 6 2 2 5 8 10 13 15 16 18 20 21 23 25 27 29 32 34 35 38 37 36 35 36 37 37 38 39 41 41
53 50 47 45 41 35 28 21 19 18 14 11 9 6 2 2 5 7 10 11 13 14 16 18 21 23 25 26 28 30 32 34 35 37 38 37 36 35 36 36 38 36 37
53 50 49 46 41 34 27 23 21 18 15 12 10 7 3 1 4 6 8 10 12 14 16 18 20 23 25 27 28 29 30 30 32 33 34 35 36 35 34 37 39 39 38
54 52 51 47 40 33 26 22 22 19 16 14 11 7 3 1 3 5 7 9 12 14 17 19 21 23 25 27 29 30 30 30 31 30 30 32 35 38 37 36 38 43 43
55 55 52 47 40 31 25 20 20 19 16 14 12 7 4 1 2 5 7 9 11 14 17 19 22 24 26 28 29 30 31 31 31 33 33 34 36 36 38 40 40 40 43
55 56 52 45 37 32 27 23 21 20 18 15 12 9 5 2 1 4 6 9 12 15 17 19 21 23 25 26 27 29 29 30 30 31 33 36 40 43 44 44 43 41 41
57 55 49 42 37 33 29 25 23 20 18 16 13 10 6 3 1 3 6 9 11 14 15 17 18 20 21 24 25 26 26 26 28 31 34 36 39 42 44 46 47 45 42

GFSMW_850_spd_273.txt.gz
Wind_Speed
19 17 16 14 12 12 13 14 14 14 12 12 13 12 11 9 8 7 3 2 2 3 4 5 6 8 9 11 13 13 15 16 19 22 24 24 20 18 20 22 19 20 22
19 19 17 16 15 14 13 13 13 13 12 11 12 12 11 10 8 7 5 3 3 4 6 7 8 9 10 11 12 14 14 15 19 19 18 13 20 10 13 21 26 26 29
22 21 19 17 16 16 16 15 15 14 13 12 10 10 9 9 8 6 5 6 7 7 7 8 9 10 11 13 15 16 17 18 17 17 12 8 8 27 13 22 17 23 30
21 21 20 18 16 16 15 14 15 15 14 12 10 10 9 9 8 7 8 7 8 9 11 12 13 14 14 14 15 16 15 15 15 14 15 11 9 9 21 22 35 23 35
24 23 20 18 16 14 14 14 14 14 14 13 11 11 10 11 11 11 10 11 11 11 12 13 15 16 17 17 17 17 17 18 16 15 16 13 15 7 16 31 32 38 34
26 24 22 19 17 15 13 13 13 14 14 12 12 11 11 12 11 11 10 10 11 12 13 14 14 15 15 15 15 16 17 17 16 16 18 18 16 20 17 26 33 36 35
29 29 26 23 20 17 15 14 12 14 13 11 12 11 11 11 11 11 12 11 12 14 15 16 16 17 17 17 17 17 17 17 18 18 18 17 18 19 20 26 33 37 41
32 31 28 24 21 18 16 14 12 12 11 10 10 10 10 10 10 11 11 12 14 15 16 16 17 17 18 18 18 17 18 17 17 16 17 18 17 18 19 23 30 42 26
35 33 30 26 23 19 16 15 13 12 11 10 9 9 9 9 11 11 11 13 13 14 14 15 16 17 18 18 19 19 19 19 19 19 20 19 19 19 21 23 25 27 41
35 34 33 30 24 20 18 16 13 12 11 9 8 8 9 10 10 11 11 12 13 14 15 16 17 19 20 22 23 23 23 22 22 21 20 20 21 21 21 21 23 26 32
42 39 37 32 27 23 19 17 15 13 11 9 8 7 8 9 9 10 12 13 14 15 15 17 19 20 21 23 23 23 23 23 23 24 25 24 25 26 25 23 23 26 29
47 41 40 37 32 27 22 19 16 13 11 9 7 6 7 8 8 10 12 13 13 14 16 17 18 20 22 23 24 25 26 26 27 27 26 25 25 24 25 25 27 29 30
41 39 40 40 36 30 25 21 17 15 12 9 7 6 6 7 8 9 11 12 13 14 15 16 18 20 22 23 24 25 26 28 28 28 28 28 28 28 27 28 29 31 36
43 40 42 41 37 32 28 23 20 16 13 10 7 6 7 7 8 9 10 10 12 13 15 16 18 19 21 23 25 25 26 26 27 28 29 29 30 28 31 31 34 37 38
42 49 47 44 40 35 30 25 20 17 13 10 8 7 7 7 7 8 9 10 11 13 15 16 17 19 22 24 25 26 26 27 27 29 30 31 33 34 35 37 39 36 35
47 48 50 46 43 37 32 26 21 18 14 11 9 9 8 7 7 7 8 9 11 12 13 15 16 19 21 23 24 26 26 27 30 31 31 31 33 35 37 38 38 35 33
49 53 56 51 45 39 33 29 24 19 15 12 11 11 9 8 7 7 7 9 10 11 12 14 16 17 20 21 23 24 26 28 29 30 32 33 33 35 38 39 39 38 34
49 53 57 51 45 39 35 29 25 21 18 16 14 12 11 8 7 7 7 8 8 9 11 13 15 17 19 21 22 24 25 26 28 29 31 33 34 34 37 39 40 40 38
59 61 59 52 48 42 37 32 28 24 21 17 15 13 11 9 7 6 6 6 8 9 10 13 15 17 19 22 24 24 25 26 27 29 30 32 33 34 34 36 38 41 40
52 58 57 54 48 44 39 35 31 26 23 18 15 14 12 9 7 6 5 5 6 8 10 12 14 16 18 21 24 26 27 28 28 27 29 30 32 33 32 33 34 39 41
54 58 58 55 50 46 43 38 32 27 21 19 17 16 13 9 7 5 4 4 6 8 9 11 14 16 18 20 22 24 26 28 29 30 31 31 32 33 32 30 30 33 37
53 59 59 56 52 48 45 38 32 27 23 20 19 17 13 10 7 5 4 4 5 7 9 11 13 15 17 19 21 22 24 25 27 29 29 28 31 33 36 37 35 34 35
56 59 61 57 54 50 44 39 33 29 25 22 20 18 14 11 8 6 3 3 4 6 9 11 13 16 18 19 20 21 22 23 25 26 24 26 29 32 35 38 41 42 41
55 58 59 59 57 51 44 35 31 28 26 24 22 19 15 12 9 6 4 3 4 6 9 11 14 16 17 19 20 22 23 23 24 24 25 29 32 35 38 40 41 43 44
55 60 61 60 57 52 44 36 32 30 28 26 24 21 17 13 10 7 4 3 3 6 8 11 13 15 16 18 20 21 23 23 23 25 27 30 33 38 40 42 43 44 45
54 59 60 60 57 51 44 38 34 31 30 29 26 22 18 14 11 7 5 3 3 6 8 9 11 12 14 15 17 18 20 20 22 25 29 32 34 37 38 41 43 44 46

GFSMW_850_spd_276.txt.gz
Wind_Speed
11 10 11 10 10 11 14 15 14 13 13 14 11 10 11 8 8 6 5 4 3 3 3 4 6 7 8 10 11 12 12 10 17 13 16 14 9 9 9 11 12 15 14
13 11 11 11 11 12 13 14 13 13 13 11 12 13 11 10 8 6 5 2 1 1 2 3 5 6 7 9 10 10 10 10 15 14 11 10 14 4 17 8 9 17 17
18 15 13 13 13 13 14 15 15 14 13 12 11 11 10 9 7 6 4 3 2 2 3 4 5 6 7 8 9 10 11 10 11 13 11 7 6 23 1 14 9 22 19
19 18 16 15 14 15 15 15 15 14 15 14 13 11 9 8 7 6 5 5 5 6 6 7 7 7 8 9 11 12 12 11 10 8 11 7 10 9 16 12 24 18 25
21 20 18 16 15 17 16 16 15 15 14 12 11 10 9 8 7 7 7 6 7 8 8 9 10 11 12 12 12 13 14 13 11 10 11 10 11 7 17 25 25 27 24
23 20 18 18 16 17 18 17 16 15 14 13 11 10 9 9 9 8 7 7 7 8 9 9 9 9 9 10 11 12 12 12 12 11 11 11 12 15 15 24 29 31 26
29 27 25 22 20 19 19 18 16 16 15 14 13 13 12 11 10 9 7 7 7 8 8 9 10 11 12 12 13 13 13 13 12 13 11 11 11 13 16 22 28 33 34
32 30 28 25 23 21 19 18 17 17 16 14 13 13 12 11 10 9 8 8 8 9 10 11 12 12 12 12 12 12 13 13 13 13 13 12 12 13 16 19 26 39 28
33 31 28 25 24 22 20 19 18 17 16 15 13 12 12 11 10 9 9 9 9 10 11 11 11 11 12 12 12 12 13 14 14 13 15 15 14 16 17 18 19 25 39
37 35 31 27 24 22 21 20 18 17 16 14 13 11 11 10 10 9 9 9 10 10 10 10 10 11 13 14 15 14 15 15 15 15 17 16 17 18 18 18 19 21 28
44 40 34 29 26 24 23 22 20 19 17 15 13 12 11 10 10 9 9 9 10 9 10 10 11 13 14 15 15 15 16 16 17 18 17 17 18 18 17 18 20 22 25
45 41 37 34 30 27 25 23 21 19 17 15 14 13 12 11 10 10 9 9 10 10 10 11 12 13 14 15 15 16 17 16 16 17 18 17 19 19 19 21 21 24 27
41 40 38 37 33 29 26 24 22 20 18 17 15 14 13 12 11 10 10 10 10 10 11 11 11 12 14 15 16 16 17 15 15 15 16 17 20 20 23 25 25 27 29
45 42 40 38 35 32 29 26 23 22 20 18 16 15 14 13 12 11 10 10 10 10 10 11 11 12 14 15 16 16 17 16 16 17 16 16 20 24 28 27 28 29 32
45 45 44 42 38 34 30 27 25 24 22 19 17 16 16 14 13 12 11 10 10 9 10 10 10 11 13 15 16 17 16 16 16 15 16 18 25 29 31 33 34 33 34
47 46 44 42 40 37 34 30 28 25 23 20 19 18 18 16 14 12 11 10 9 9 9 8 8 10 12 13 15 16 14 14 14 16 18 19 19 29 33 34 32 30 31
50 50 49 46 42 38 36 34 31 28 25 22 21 20 19 17 15 13 11 10 8 8 7 7 7 8 11 12 14 15 14 13 15 16 18 21 22 27 35 36 32 26 27
48 48 48 46 42 39 36 33 32 30 26 24 22 21 20 18 16 14 11 10 8 7 6 6 6 7 10 11 13 13 13 13 14 17 19 24 26 29 34 35 31 27 27
53 54 51 48 42 41 39 36 33 30 27 25 24 22 21 19 17 14 12 10 8 7 5 5 6 7 8 11 12 13 13 14 15 17 20 24 26 28 31 33 32 32 33
42 49 52 49 46 44 42 38 35 32 28 26 25 23 22 19 17 15 13 11 9 7 5 5 6 6 8 11 13 14 14 15 16 18 19 21 24 26 29 31 29 34 39
45 47 51 55 55 51 48 42 38 34 29 27 26 25 22 20 18 16 13 11 9 7 5 4 5 6 8 10 12 14 15 17 17 18 20 21 22 24 28 32 31 33 38
44 50 52 53 57 57 53 44 40 34 31 29 28 26 24 21 19 16 14 11 9 7 5 4 4 5 6 9 12 14 16 17 17 17 18 19 20 23 27 30 33 35 32
45 53 52 49 48 57 55 50 40 36 34 31 29 27 25 22 19 16 14 12 9 7 5 4 4 3 6 8 10 13 14 16 17 17 17 19 22 25 27 29 32 31 34
45 48 48 49 50 60 55 49 42 39 36 33 30 28 26 24 20 16 14 11 10 8 6 5 4 4 5 8 10 12 14 16 17 17 19 21 23 26 26 25 27 26 30
44 49 50 51 55 62 58 50 45 40 37 33 30 29 26 23 21 16 14 13 12 10 8 6 5 5 5 8 10 12 14 16 16 17 20 23 25 24 25 25 25 25 30
43 46 48 49 51 56 54 48 46 42 38 35 32 29 28 23 21 19 18 14 12 9 8 6 5 5 5 6 9 11 12 14 15 18 20 23 24 23 24 26 28 29 31

GFSMW_850_spd_279.txt.gz
Wind_Speed
15 13 13 12 13 11 15 15 15 16 15 15 14 12 8 7 5 6 5 5 4 3 3 4 5 5 8 9 10 9 9 10 15 11 14 10 6 5 11 15 9 16 17
17 14 13 12 12 9 14 14 14 14 15 14 12 10 9 8 6 4 4 3 2 2 3 3 4 3 6 6 8 9 9 8 14 16 10 8 5 4 9 3 8 17 15
20 17 15 14 13 12 11 14 14 14 13 13 10 9 6 6 5 3 2 1 1 2 1 1 3 4 5 7 8 8 9 9 11 14 11 7 6 19 4 8 14 14 22
21 19 18 16 15 14 13 13 12 12 11 9 8 9 7 8 7 5 4 3 3 3 3 3 3 4 6 7 9 11 11 11 11 9 11 8 10 8 14 10 16 22 23
23 22 21 19 16 15 15 15 14 13 13 13 12 10 10 8 7 6 5 5 5 5 5 6 8 9 10 10 11 11 12 11 10 10 11 10 9 8 15 21 26 23 23
27 24 22 21 19 17 16 16 15 14 14 13 13 12 11 10 9 8 7 6 6 6 7 8 9 9 8 8 9 10 11 11 11 11 11 11 13 14 16 20 23 26 24
31 29 27 25 22 20 18 17 16 15 14 13 12 13 12 12 11 9 8 7 6 5 7 7 7 7 7 8 9 10 11 12 12 13 11 11 11 13 15 17 22 27 28
32 30 29 26 24 22 21 19 18 17 15 15 15 14 12 10 10 9 9 8 7 6 7 7 7 8 8 9 10 10 11 11 11 12 13 11 12 14 15 17 23 33 30
37 34 32 29 26 25 23 22 20 19 17 17 16 15 13 12 11 11 10 9 8 7 7 7 7 8 9 10 10 10 11 11 12 13 15 13 14 16 17 19 19 23 30
37 36 34 32 29 26 24 23 21 19 18 17 16 15 14 13 12 11 10 10 10 9 8 8 8 8 9 10 10 10 12 12 13 13 14 16 17 17 17 17 18 19 25
42 40 37 34 30 27 25 24 23 22 20 18 16 16 14 14 13 12 12 11 10 9 9 8 8 8 9 10 11 11 11 12 12 14 14 15 17 18 18 19 19 22 25
41 39 37 34 33 31 28 27 25 23 21 19 18 17 16 15 14 13 12 12 10 10 9 8 8 8 9 9 10 10 10 10 11 12 12 13 16 17 17 19 21 22 25
39 39 38 37 35 32 30 29 26 24 22 20 19 18 17 15 14 14 13 12 11 10 9 8 8 8 8 9 10 9 9 9 10 11 12 13 15 16 23 24 26 25 27
43 42 41 39 37 35 32 30 28 26 24 22 20 19 18 16 15 14 13 12 11 10 9 8 7 7 8 8 8 7 7 7 8 10 11 12 17 24 28 31 31 30 29
45 44 43 41 39 37 34 31 29 28 26 24 21 20 19 17 17 16 14 13 12 10 9 8 7 6 6 7 7 7 5 7 8 9 10 13 22 26 30 31 32 32 32
44 45 44 43 41 39 36 33 31 30 27 24 22 21 20 19 18 17 15 14 13 11 10 8 7 4 4 6 7 7 6 6 7 9 10 12 14 23 27 29 29 30 31
41 46 48 46 44 42 40 37 33 30 28 26 24 23 21 20 19 18 16 15 13 11 10 8 6 3 3 5 6 7 6 5 8 9 11 14 16 24 27 29 28 25 27
40 45 46 46 45 43 39 38 34 32 30 27 26 24 23 21 20 18 16 16 13 11 9 8 7 3 3 4 6 6 6 5 6 8 10 16 18 23 26 29 28 29 28
45 51 47 44 43 42 42 39 36 33 31 29 28 26 24 23 21 19 18 15 14 12 10 8 7 4 1 3 4 4 4 5 6 7 11 16 19 22 24 28 29 32 31
35 39 44 45 44 44 45 44 42 38 33 31 29 27 25 24 22 20 18 16 14 12 11 8 7 4 1 2 4 5 4 5 6 8 10 17 18 20 23 27 28 32 34
39 42 46 49 48 46 46 46 44 40 34 31 29 27 26 24 22 21 18 17 15 13 11 9 7 5 2 2 5 6 6 8 8 10 13 15 17 19 21 24 27 28 34
35 45 50 53 51 50 49 46 46 41 36 34 31 29 27 25 23 22 19 17 16 14 12 10 7 5 3 2 4 5 7 9 10 10 13 14 16 18 20 24 26 27 32
32 44 49 50 52 55 54 49 47 43 40 36 32 30 28 25 24 22 20 18 16 14 13 11 9 7 4 1 2 4 7 9 10 11 11 14 17 20 22 24 26 27 31
30 37 45 48 48 51 50 47 49 46 41 38 35 33 31 27 24 21 19 17 16 15 14 13 11 9 6 4 3 4 6 8 10 10 13 16 18 19 21 24 26 25 28
26 36 45 47 48 53 50 47 49 48 44 40 38 35 31 30 26 21 19 17 20 17 14 13 12 10 9 6 4 4 6 7 9 10 13 16 19 20 22 24 26 26 30
22 34 41 46 47 49 48 49 52 51 47 44 39 37 36 31 29 30 29 27 23 22 19 15 14 12 9 7 5 4 5 6 7 10 13 16 18 18 19 21 24 26 30

GFSMW_850_spd_282.txt.gz
Wind_Speed
21 20 20 21 22 20 15 16 15 16 17 17 15 13 11 10 11 10 9 7 5 4 5 5 3 6 7 8 7 6 5 10 14 12 9 12 3 2 4 6 14 17 19
23 20 19 19 20 16 16 16 15 15 15 15 13 12 11 11 8 7 6 5 4 3 4 4 2 2 6 5 6 6 6 8 16 18 10 8 6 5 9 8 12 19 23
25 23 21 21 16 15 18 17 16 16 15 15 15 13 11 8 6 6 6 5 4 3 1 1 1 1 3 6 7 6 9 10 14 17 16 7 7 13 3 6 18 21 26
25 22 22 22 19 14 18 18 17 17 16 14 13 10 9 13 12 8 6 4 3 2 2 2 2 2 4 4 7 9 10 8 12 12 13 10 9 9 12 10 15 26 25
28 25 24 21 21 19 13 14 17 16 17 14 12 15 19 15 13 8 6 6 5 5 4 4 4 5 7 9 10 11 11 12 12 13 10 10 7 5 9 16 30 26 27
30 28 25 24 23 21 23 23 21 20 20 22 20 19 18 15 11 10 8 6 6 6 6 6 7 8 9 9 10 11 12 12 12 10 11 11 11 12 11 18 22 28 28
31 32 31 29 25 25 25 24 22 21 21 22 23 21 18 16 14 12 9 8 6 6 7 7 7 9 9 9 10 10 12 11 13 13 12 9 11 13 15 15 22 28 31
34 33 32 31 29 28 26 25 24 23 22 22 20 20 17 16 16 14 14 12 9 8 9 8 8 8 9 9 10 10 11 12 12 13 13 11 14 16 17 20 23 29 25
37 34 32 32 32 30 29 28 27 23 22 21 20 19 19 18 19 19 15 12 11 10 10 9 8 9 9 9 9 10 11 11 12 13 14 15 16 17 20 22 22 22 25
40 38 35 34 33 32 30 29 26 25 24 22 21 21 21 18 16 17 15 15 14 11 11 9 9 9 9 9 9 10 11 12 13 14 15 18 19 21 23 22 21 22 22
47 44 41 40 36 32 29 30 28 27 25 24 23 22 19 19 18 17 15 15 14 13 11 10 9 9 9 9 10 10 11 11 13 14 15 18 19 20 21 23 24 25 26
47 43 39 38 34 32 32 34 31 30 29 25 25 23 21 20 19 18 17 16 15 14 12 11 10 9 9 10 10 10 10 11 13 13 13 16 18 21 24 26 27 27 28
46 43 42 39 37 36 33 34 33 32 31 30 27 26 24 22 21 19 18 17 15 15 13 11 10 9 9 9 9 9 9 10 11 12 13 15 19 22 25 26 27 29 31
45 44 41 40 38 37 36 34 33 31 31 31 29 27 25 24 22 20 19 17 16 15 13 11 10 9 9 8 7 8 8 8 10 12 13 15 18 22 24 26 27 30 34
44 47 45 44 43 41 39 36 35 35 33 31 30 29 27 24 22 21 20 19 17 15 14 12 9 9 8 8 6 5 7 7 7 8 9 12 17 20 22 26 28 29 32
47 45 43 43 43 44 42 40 39 38 36 32 30 30 29 26 25 23 22 21 19 16 14 11 8 8 7 6 5 5 6 6 6 6 7 9 14 15 19 23 24 26 27
43 45 48 47 44 44 43 41 40 40 38 35 33 32 31 28 27 25 23 21 19 17 15 12 9 8 7 5 4 4 4 6 5 6 8 9 13 16 20 23 23 24 25
37 43 45 44 43 42 41 40 40 40 39 37 35 34 33 31 28 26 24 22 20 18 15 13 9 8 6 4 4 4 6 5 4 6 8 10 14 18 21 23 23 24 26
36 45 44 42 43 43 43 41 41 41 39 39 39 37 35 33 31 28 26 23 20 18 15 13 10 8 6 4 3 3 6 1 2 4 8 11 15 18 21 22 23 25 25
33 39 42 43 45 47 48 48 45 44 43 42 42 38 36 34 33 30 27 24 21 18 16 14 14 9 7 5 4 3 3 3 3 4 9 12 15 17 19 21 25 28 30
31 38 42 48 51 51 49 47 44 44 42 40 40 39 37 34 32 30 28 26 23 20 17 15 13 11 8 6 5 4 3 3 4 3 7 11 13 15 17 21 25 26 30
28 38 44 50 51 52 53 49 47 43 39 39 39 38 36 33 32 31 29 26 25 23 20 16 14 11 9 7 6 5 4 3 3 5 7 10 11 14 18 21 23 26 29
27 33 40 45 47 51 52 50 46 45 43 43 41 39 37 35 34 34 31 29 26 24 21 18 16 13 11 9 8 6 5 3 4 5 6 9 12 14 17 20 23 27 30
18 26 33 40 45 49 49 48 46 46 47 47 44 43 41 38 35 32 31 30 27 26 23 21 17 15 13 12 11 9 6 3 3 4 6 9 12 14 17 21 23 26 29
14 24 31 38 41 45 46 46 47 49 50 48 46 45 43 40 35 32 31 29 28 26 25 23 20 18 17 13 11 8 6 3 2 2 6 8 11 14 17 21 23 26 29
25 12 32 34 38 44 46 47 49 52 53 49 47 47 46 42 39 37 35 30 28 27 25 26 23 20 16 15 13 10 6 3 1 2 6 8 11 15 18 21 23 25 28

GFSMW_850_spd_288.txt.gz
Wind_Speed
40 42 46 45 43 40 35 32 30 29 28 33 29 25 22 19 17 16 15 15 15 14 13 12 11 11 9 8 9 8 2 4 14 21 23 18 12 8 5 6 9 11 11
41 41 41 43 42 40 36 33 30 28 25 25 26 24 22 20 17 14 14 14 13 12 12 11 10 9 7 6 6 4 4 16 25 24 21 11 7 4 4 6 9 10 9
45 42 41 40 38 35 33 30 29 29 27 26 26 24 21 19 18 16 15 14 13 13 12 11 10 7 6 6 6 5 6 13 22 21 8 7 6 5 1 6 10 9 12
44 41 38 37 34 31 30 29 29 31 30 30 28 25 23 22 20 15 15 14 14 13 11 10 8 7 6 6 6 7 7 8 13 14 9 8 7 4 4 4 10 13 13
45 42 40 39 36 34 33 30 28 30 32 30 25 23 22 21 20 17 16 16 14 12 11 9 8 7 6 7 6 7 8 9 8 8 10 8 8 8 6 5 12 14 16
43 43 43 42 40 38 34 31 30 33 31 29 27 26 25 24 22 20 19 17 15 13 12 10 8 8 7 8 8 8 9 10 10 10 11 10 9 12 11 11 12 13 15
49 50 50 46 43 41 37 33 34 35 34 32 31 28 26 26 22 20 19 19 17 15 13 11 10 10 10 10 10 9 10 11 10 11 12 13 14 13 13 14 15 15 19
50 51 54 50 45 41 38 35 36 36 36 34 32 31 28 26 22 19 20 17 15 15 14 13 12 12 11 11 11 11 12 12 12 13 13 13 14 13 15 16 18 15 19
47 53 57 55 48 46 43 40 39 39 37 37 35 32 29 28 24 23 20 18 17 17 17 15 15 13 13 12 12 12 14 13 14 15 14 14 15 15 16 16 18 21 19
53 58 60 59 54 50 45 41 40 40 38 36 34 32 31 28 26 25 21 20 18 19 19 18 16 15 14 14 13 14 15 13 15 15 13 14 15 14 14 15 17 18 19
41 51 59 57 56 50 45 42 40 39 36 35 34 33 33 30 27 24 22 19 19 21 20 18 18 16 16 15 14 14 14 14 14 14 12 14 13 13 13 14 16 17 19
46 45 49 51 54 51 48 44 41 40 37 37 36 35 32 30 28 26 23 21 22 21 20 19 18 17 16 16 15 14 14 13 12 12 11 13 12 11 12 13 15 18 21
36 44 45 52 57 55 50 46 43 41 40 40 39 36 34 32 30 27 25 25 23 22 21 20 20 19 18 17 16 15 14 13 12 11 10 11 10 10 12 13 15 18 21
24 41 39 45 48 48 52 49 43 40 40 39 38 38 37 34 31 29 29 27 25 24 23 21 20 20 19 18 17 15 13 12 12 10 9 9 8 10 12 14 17 20 22
35 41 43 43 44 47 47 43 40 40 41 41 41 40 38 33 32 31 29 28 27 24 22 22 21 21 19 17 16 14 13 11 11 10 9 7 9 10 12 14 18 21 24
32 28 33 41 48 48 49 44 42 41 42 42 41 40 36 34 34 32 32 30 28 25 23 22 22 22 20 17 15 13 11 10 10 11 8 8 7 9 12 15 18 21 25
12 26 41 41 43 45 46 50 47 46 44 43 43 40 37 37 35 33 33 33 30 27 25 24 22 21 20 19 16 14 11 10 9 9 8 6 6 8 10 12 14 18 22
34 23 33 39 46 51 50 53 48 48 47 46 44 41 40 39 37 36 35 34 31 28 27 25 23 21 21 19 17 15 13 12 11 8 7 5 5 6 8 10 11 16 19
40 37 29 47 45 53 47 53 52 52 48 47 46 43 43 41 39 38 38 36 33 30 27 25 24 22 21 20 19 17 15 13 12 9 6 4 4 5 7 9 12 15 18
47 44 25 38 42 46 50 54 54 52 49 48 47 46 46 42 40 40 39 38 33 30 28 26 23 21 21 20 19 17 15 13 11 9 6 4 3 5 7 9 14 17 20
49 47 12 40 47 50 51 53 55 52 49 45 46 47 45 42 41 41 40 38 35 32 30 27 26 23 21 20 19 17 14 12 11 9 6 4 3 4 7 10 14 18 19
43 44 28 2 27 47 50 53 54 50 47 45 46 45 43 43 42 41 41 38 37 35 33 31 28 26 23 21 20 18 16 14 11 9 6 4 2 3 6 10 13 15 16
38 38 37 22 7 29 42 48 50 49 48 46 47 44 43 43 41 43 42 42 40 38 36 34 32 29 26 24 22 20 18 16 12 10 7 4 2 2 5 8 11 14 17
40 34 34 30 22 14 37 41 46 49 48 45 45 42 44 44 42 43 42 45 45 42 40 37 35 31 29 27 25 23 21 18 15 11 8 5 3 1 4 7 10 14 17
36 39 29 33 30 16 29 37 46 50 49 45 45 44 45 45 44 43 44 47 45 42 42 39 36 35 33 29 25 23 21 18 15 12 9 7 4 1 2 6 9 12 15
37 38 29 31 29 27 16 40 47 52 50 47 47 46 47 47 44 44 45 45 41 40 37 33 32 31 26 26 25 24 22 19 16 13 10 8 6 3 1 5 9 11 14